Starlink 3741

operational
NORAD ID: 52619 Int'l Des: 2022-052 Owner: SPXS Country: US Constellation: starlink
LEOCIRCULAR

关于 Starlink 3741

正在加载描述...

实时位置

正在加载3D地球...

即将过境

高度历史

Altitude vs Time

uPlot chart will show altitude changes over time

两行轨道根数

1 52619U 22052X 25306.49418586 .00000573 00000-0 54099-4 0 9991
2 52619 53.2155 120.1116 0001448 94.3099 265.8058 15.08838753191787
Epoch: Nov 2, 2025 • Age: 37 hours

当前状态

高度 545.0 km
速度 7.60 km/s
星下点 51.78°N, 128.92°E
发射日期 May 14, 2022
运行时间 3.4 years
类型 internet

技术详情

分类 Payload
质量 297.00 kg
干质量 275.00 kg
总质量 297.00 kg
长度 0.20 m
直径 2.80 m
跨度 9.00 m
形状 Box + pan
制造商 SPXS
平台类型 Starlink
阶段状态 In Orbit
所有者/国家 SPXS/US

大型星座

Loading constellations...